Content
SEND FEEDBACK

Daily
Averages
Monthly
Summary
United States of America

DELTA, ALABAMA


Home > North America > United States > Alabama
Elevation: 99 feet     Latitude: 33 26N     Longitude: 085 42W

WEATHER
 
SELECT A DAY
Number of Records: 202,982;   Date Range: 1/1/95 - 7/22/14
 
SHARE

PRINT THIS DATA

[ ← Previous Day ]
WEATHER ALMANAC - JANUARY 31, 2013
[ Next Day → ]
[ °C ]   °F
Weather ElementAverageHighLow
Temperature39.9 °F50 °F (2:53 pm)30.9 °F (6:53 am)
Dewpoint26.2 °F30 °F (9:53 pm)23 °F (1:53 pm)
Humidity60.4 %89 % (6:53 am)36 % (1:53 pm)
Barometer30.16 in30.23 in (9:53 pm)30.04 in (1:53 am)
Wind Speed9.5 mph17.3 mph (1:53 am)
Wind Gust24.2 mph (1:53 am)
Weather ElementAverage
Visibility10 mi
Wind DirectionWSW (256.4 °)

Weather ElementTotal
Precipitation---
Heating Degree Days24.6 (Base 65)
Averaged from 22 records on January 31, 2013
WEATHER CONDITIONS BREAKOUT
WIND DIRECTION BREAKOUT
WEATHER BY HOUR - JANUARY 31, 2013
[ °C ]   °F
Local TimeTemperatureDewpointHumidityBarometerVisibilityWind DirectionWind SpeedGust SpeedPrecipitationEventsConditions
1:53 AM37.0 °F26.1 °F65 %30.04 in10.0 miWest (270°)17.3 mph24.2 mphClear
2:53 AM36.0 °F25.0 °F64 %30.06 in10.0 miWest (270°)10.4 mphClear
3:53 AM35.1 °F25.0 °F67 %30.08 in10.0 miWSW (250°)10.4 mphClear
4:53 AM34.0 °F26.1 °F73 %30.10 in10.0 miSW (230°)6.9 mphClear
5:53 AM33.1 °F27.0 °F78 %30.11 in10.0 miWSW (250°)6.9 mphClear
6:53 AM30.9 °F28.0 °F89 %30.13 in10.0 miWSW (250°)8.1 mphClear
7:53 AM35.1 °F28.0 °F76 %30.14 in10.0 miWest (260°)11.5 mphClear
8:53 AM37.9 °F27.0 °F65 %30.17 in10.0 miWSW (250°)13.8 mph20.7 mphClear
9:53 AM39.9 °F27.0 °F60 %30.21 in10.0 miWSW (250°)16.1 mph24.2 mphClear
10:53 AM42.1 °F27.0 °F55 %30.22 in10.0 miWest (260°)15.0 mph19.6 mphClear
11:53 AM44.1 °F25.0 °F47 %30.21 in10.0 miWSW (250°)12.7 mphClear
12:53 PM46.9 °F24.1 °F41 %30.19 in10.0 miWNW (290°)11.5 mph21.9 mphClear
1:53 PM48.9 °F23.0 °F36 %30.19 in10.0 miWest (270°)11.5 mph17.3 mphClear
2:53 PM50.0 °F24.1 °F36 %30.18 in10.0 miWest (270°)8.1 mphClear
3:53 PM48.9 °F25.0 °F39 %30.17 in10.0 miWSW (250°)11.5 mphClear
4:53 PM46.9 °F25.0 °F42 %30.17 in10.0 miWSW (240°)9.2 mphClear
5:53 PM43.0 °F26.1 °F51 %30.17 in10.0 miSSW (200°)5.8 mphClear
6:53 PM39.9 °F28.0 °F63 %30.19 in10.0 miWSW (250°)5.8 mphClear
8:53 PM37.9 °F27.0 °F65 %30.22 in10.0 miWest (260°)3.5 mphClear
9:53 PM33.1 °F30.0 °F89 %30.23 in10.0 miWSW (240°)3.5 mphClear
10:53 PM39.0 °F26.1 °F60 %30.22 in10.0 miWNW (290°)5.8 mphClear
11:53 PM37.0 °F27.0 °F67 %30.22 in10.0 miWNW (290°)4.6 mphClear
Hourly data recorded from KANB, located miles away from Delta, Alabama







STORIES FROM OUR PARTNERS